GW4286 Weather Reports


Display with metric or nautical units.
time (UTC)temp
F
wind
direction
speed
MPH
gust
MPH
rain 1hr
in
rain 24hr
in
rain mn
in
humidity
%
barometer
mb
20260505001516 45 227 10.0 13.0 0.00 0.25 0.03 89 1009.6
20260505000020 45 201 8.0 14.0 0.00 0.31 0.03 88 1009.6
20260504234524 45 196 8.0 15.0 0.00 0.37 0.03 88 1009.2
20260504233025 45 174 9.0 14.0 0.00 0.42 0.03 87 1008.7
20260504231526 45 198 7.0 13.0 0.00 0.47 0.03 88 1008.6
20260504230016 45 200 9.0 13.0 0.00 0.51 0.03 87 1008.3
20260504224534 46 223 9.0 17.0 0.00 0.55 0.03 87 1008.2
20260504223030 46 204 7.0 15.0 0.00 0.60 0.03 85 1007.8
20260504221537 47 208 9.0 18.0 0.00 0.64 0.03 86 1007.6
20260504220028 47 182 8.0 18.0 0.00 0.70 0.03 85 1007.4
20260504214528 48 198 9.0 20.0 0.00 0.74 0.03 83 1007.6
20260504213011 49 174 10.0 22.0 0.00 0.74 0.03 82 1007.6
20260504211507 49 170 10.0 17.0 0.00 0.74 0.03 83 1007.5
20260504210012 48 157 9.0 16.0 0.00 0.74 0.03 86 1007.6
20260504204533 47 140 8.0 16.0 0.00 0.74 0.03 86 1007.9
20260504203018 47 200 8.0 16.0 0.00 0.74 0.03 85 1008.1
20260504201523 46 180 8.0 15.0 0.00 0.74 0.03 85 1008.0
20260504200009 47 170 8.0 16.0 0.00 0.74 0.03 85 1008.2
20260504194526 47 169 8.0 20.0 0.00 0.74 0.03 85 1007.9
20260504193018 48 194 9.0 18.0 0.00 0.74 0.03 85 1008.0
20260504191524 48 186 11.0 24.0 0.00 0.77 0.03 81 1007.9
20260504190030 51 165 13.0 23.0 0.00 0.79 0.03 79 1007.7
20260504184540 50 167 13.0 23.0 0.00 0.81 0.03 81 1007.5
20260504183011 50 209 12.0 23.0 0.00 0.85 0.03 81 1007.7
20260504181519 50 184 12.0 25.0 0.00 0.88 0.03 80 1007.6
20260504180033 50 162 13.0 26.0 0.00 0.90 0.03 80 1007.5
20260504174523 51 201 10.0 22.0 0.00 0.93 0.03 78 1007.6
20260504173014 51 189 11.0 24.0 0.00 0.98 0.03 78 1007.6
20260504171514 50 209 12.0 20.0 0.00 1.02 0.03 80 1007.7
20260504081504 41 247 12.0 22.0 0.00 2.24 0.03 85 1004.5
20260504050020 42 244 16.0 29.0 0.00 2.24 0.03 94 1001.7
20260504044529 42 269 15.0 29.0 0.00 2.24 0.03 96 1001.6
20260504043028 42 244 13.0 27.0 0.00 2.23 0.02 97 1001.5
20260504041510 42 229 14.0 30.0 0.01 2.23 0.02 98 1001.4
20260504040018 42 248 16.0 28.0 0.02 2.23 0.02 98 1001.2
20260504034517 42 232 12.0 25.0 0.02 2.23 0.02 98 1001.1
20260504033009 41 284 11.0 27.0 0.02 2.22 0.01 98 1001.0
20260504031508 41 289 16.0 29.0 0.02 2.22 0.00 98 1000.8
20260504030011 41 267 16.0 31.0 0.02 2.21 0.00 99 1000.6
20260504024512 41 242 17.0 30.0 0.03 2.21 2.21 99 1000.4
20260504023010 41 273 17.0 28.0 0.03 2.20 2.20 99 1000.2
20260504021507 41 285 19.0 29.0 0.03 2.19 2.19 99 1000.1
20260504020014 41 273 19.0 32.0 0.05 2.18 2.18 99 999.9
20260504014509 41 303 20.0 30.0 0.08 2.18 2.18 99 999.5
20260504013023 41 290 19.0 32.0 0.12 2.17 2.17 99 999.3
20260504011513 41 297 22.0 30.0 0.17 2.15 2.15 99 999.1
20260504010015 41 279 20.0 31.0 0.20 2.13 2.13 99 998.8
20260504004514 41 270 18.0 26.0 0.22 2.09 2.09 99 998.5
20260504003024 41 317 19.0 30.0 0.22 2.04 2.04 99 998.3